Location: Aalen
(48.8330°N, 10.1000°E)
Time: 20:03:37
(UTC+02:00)

S-56A Canister/Altair - Pass Details

Date: 03 August 2021
Orbit: 632 x 2500 km, 38.9° (Epoch: 19 September)

Event Time Altitude Azimuth Distance (km) Brightness Sun altitude
Rises 22:15:32 0° 281° (W) 6,184 13.2 -11.6°
Reaches altitude 10° 22:21:10 10° 268° (W) 5,125 12.3 -12.2°
Maximum altitude 22:30:20 20° 228° (SW) 4,055 11.2 -13.3°
Drops below altitude 10° 22:38:25 10° 188° (S) 4,408 11.0 -14.2°
Enters shadow 22:40:47 - 179° (S) 4,748 11.1 -14.4°
Sets 22:42:47 0° 172° (S) 5,095 - -14.6°
